DateTimeUTC,F1_A11,F1_S11,BsB_S11,BsG_S11,BsR_S11,BbsB_S11,BbsG_S11,BbsR_S11,BaB_A11,BaG_A11,BaR_A11,Tu_S11,T_S11,Uu_S11,U_S11,P_S11,T1_A11
2021-02-17T11:00:00Z,00000200,21000000,,,,,,,-000.01,0000.11,0000.02,15.9,22.9,,00.0,0636.9,30.9
2021-02-17T11:01:00Z,00000200,21000000,,,,,,,0000.16,0000.27,0000.09,15.9,22.9,,00.0,0636.9,30.9
2021-02-17T11:02:00Z,00000200,21000000,,,,,,,-000.21,0000.07,0000.08,15.8,22.9,,00.0,0636.9,30.9
2021-02-17T11:03:00Z,00000200,61000000,,,,,,,0000.55,0000.11,0000.28,15.8,22.9,,00.0,0636.9,30.9
2021-02-17T11:04:00Z,00000200,41000000,0000.21,0000.23,-000.03,-000.04,-000.07,-000.14,0000.34,-000.04,0000.12,15.9,22.7,,00.0,0637.7,30.9
2021-02-17T11:05:00Z,00000200,01000000,-000.20,-000.11,0000.05,0000.05,0000.10,-000.43,0000.35,0000.43,0000.21,16.0,22.6,,00.0,0637.7,30.9
2021-02-17T11:06:00Z,00000200,01000000,-000.49,0000.02,-000.17,-000.28,0000.16,-000.27,0000.03,0000.18,0000.44,16.1,22.6,,00.0,0637.7,30.9
2021-02-17T11:07:00Z,00000200,01000000,0000.07,-000.02,-000.02,-000.13,0000.02,-000.39,-000.03,0000.17,-000.15,16.2,22.7,,00.0,0637.7,30.9
2021-02-17T11:08:00Z,00000200,01000000,0000.25,-000.00,-000.15,0000.07,0000.28,-000.04,-000.10,-000.00,0000.18,16.3,22.7,,00.0,0637.7,31.0
2021-02-17T11:09:00Z,00000200,01000000,0000.08,-000.02,-000.30,0000.27,0000.13,-000.06,0000.45,0000.34,0000.11,16.4,22.7,,00.0,0637.7,31.0
2021-02-17T11:10:00Z,00000200,01000000,-000.10,0000.03,0000.01,0000.01,0000.01,-000.04,0000.13,0000.17,0000.25,16.4,22.8,,00.0,0637.7,31.0
2021-02-17T11:11:00Z,00000200,01000000,-000.16,-000.08,-000.26,-000.13,0000.04,-000.34,-000.26,-000.23,-000.27,16.4,22.8,,00.0,0637.7,31.0
2021-02-17T11:12:00Z,00000200,01000000,0000.26,-000.10,0000.06,-000.36,-000.00,0000.05,0000.38,0000.36,-000.04,16.4,22.8,,00.0,0637.7,31.0
2021-02-17T11:13:00Z,00000200,01000000,0000.23,0000.04,-000.14,0000.38,-000.05,-000.20,-000.04,-000.08,0000.13,16.3,22.7,,00.0,0637.7,31.0
2021-02-17T11:14:00Z,00000200,01000000,-000.31,0000.03,-000.29,0000.02,0000.04,-000.12,0000.08,-000.05,-000.20,16.3,22.7,,00.0,0637.7,31.0
2021-02-17T11:15:00Z,00000200,01000000,-000.60,-000.04,-000.16,-000.39,0000.20,0000.20,-000.15,0000.10,0000.17,16.3,22.7,,00.0,0637.7,31.0
2021-02-17T11:16:00Z,00000200,01000000,0000.29,-000.12,-000.49,-000.13,0000.04,-000.06,0000.47,0000.40,0000.05,16.2,22.7,,00.0,0637.6,30.9
2021-02-17T11:17:00Z,00000200,01000000,0000.39,0000.30,-000.15,-000.14,0000.09,-000.02,0000.09,-000.32,0000.01,16.2,22.7,,00.0,0637.6,30.9
2021-02-17T11:18:00Z,00000200,01000000,-000.45,0000.27,-000.08,0000.34,0000.05,0000.02,-000.10,0000.37,0000.12,16.2,22.7,,00.0,0637.6,30.9
2021-02-17T11:19:00Z,00000200,01000000,-000.73,0000.17,0000.12,-000.31,0000.10,-000.05,0000.41,-000.16,0000.25,16.1,22.6,,00.0,0637.6,30.9
2021-02-17T11:20:00Z,00000200,01000000,-000.97,0000.11,-000.15,0000.33,0000.10,-000.12,0000.38,0000.22,0000.10,16.2,22.6,,00.0,0637.5,30.9
2021-02-17T11:21:00Z,00000200,01000000,-000.76,0000.26,-000.22,-000.46,0000.10,-000.12,-000.01,0000.51,0000.36,16.2,22.6,,00.0,0637.5,30.9
2021-02-17T11:22:00Z,00000200,01000000,-000.78,0000.41,0000.08,-000.14,0000.02,-000.12,0000.12,0000.13,0000.11,16.3,22.7,,00.0,0637.5,30.9
2021-02-17T11:23:00Z,00000200,01000000,-000.33,-000.02,0000.03,0000.30,-000.04,-000.02,0000.24,0000.18,-000.16,16.4,22.7,,00.0,0637.5,31.0
2021-02-17T11:24:00Z,00000200,01000000,-000.59,-000.29,0000.01,-000.19,0000.42,-000.28,0000.07,0000.05,0000.43,16.4,22.7,,00.0,0637.5,31.0
2021-02-17T11:25:00Z,00000200,01000000,-000.37,-000.06,-000.14,0000.37,0000.18,-000.15,-000.32,0000.19,-000.05,16.5,22.7,,00.0,0637.5,31.0
2021-02-17T11:26:00Z,00000200,01000000,-000.16,-000.17,-000.05,-000.03,-000.01,-000.21,-000.04,-000.22,-000.23,16.4,22.7,,00.0,0637.5,31.0
2021-02-17T11:27:00Z,00000200,01000000,-000.39,-000.25,0000.04,-000.38,0000.23,0000.12,0000.32,0000.03,-000.02,16.3,22.7,,00.0,0637.4,30.9
2021-02-17T11:28:00Z,00000200,01000000,0000.14,0000.16,-000.07,-000.08,0000.04,-000.09,0000.41,-000.18,0000.27,16.3,22.7,,00.0,0637.4,31.0
2021-02-17T11:29:00Z,00000200,01000000,-000.40,-000.03,-000.09,-000.62,0000.11,0000.02,-000.35,0000.08,-000.08,16.3,22.7,,00.0,0637.4,30.9
2021-02-17T11:30:00Z,00000200,01000000,0000.06,0000.13,-000.12,-000.40,-000.15,-000.46,0000.25,0000.46,-000.14,16.3,22.7,,00.0,0637.4,30.9
2021-02-17T11:31:00Z,00000200,01000000,-000.08,-000.07,-000.13,-000.03,-000.01,-000.18,0000.16,-000.36,0000.30,16.2,22.6,,00.0,0637.4,30.9
2021-02-17T11:32:00Z,00000200,01000000,-000.13,-000.01,-000.06,0000.01,-000.23,-000.22,-000.02,0000.00,0000.05,16.2,22.6,,00.0,0637.4,30.9
2021-02-17T11:33:00Z,00000200,01000000,-000.22,0000.06,-000.22,-000.27,0000.03,-000.04,-000.07,0000.39,0000.23,16.1,22.6,,00.0,0637.4,30.9
2021-02-17T11:34:00Z,00000200,01000000,-000.18,0000.10,-000.30,0000.04,0000.12,0000.00,0000.02,-000.29,-000.00,16.1,22.6,,00.0,0637.4,30.9
2021-02-17T11:35:00Z,00000200,01000000,0000.25,0000.08,0000.09,-000.25,0000.26,0000.10,0000.18,0000.33,-000.01,16.2,22.6,,00.0,0637.4,30.9
2021-02-17T11:36:00Z,00000200,01000000,-000.15,-000.26,-000.06,-000.42,-000.00,0000.14,0000.44,0000.09,0000.16,16.2,22.6,,00.0,0637.4,30.9
2021-02-17T11:37:00Z,00000200,01000000,0000.24,-000.16,0000.02,-000.36,0000.05,-000.28,-000.18,-000.02,-000.29,16.3,22.6,,00.0,0637.3,30.9
2021-02-17T11:38:00Z,00000200,01000000,-000.09,0000.31,-000.33,-000.32,0000.13,0000.14,0000.21,0000.52,0000.67,16.4,22.7,,00.0,0637.3,31.0
2021-02-17T11:39:00Z,00000200,01000000,-000.08,-000.05,-000.09,0000.15,-000.06,0000.12,-000.12,0000.03,-000.17,16.5,22.7,,00.0,0637.4,31.0
2021-02-17T11:40:00Z,00000200,01000000,-000.25,-000.06,-000.17,-000.36,-000.02,0000.05,-000.06,-000.20,-000.08,16.5,22.8,,00.0,0637.3,31.0
2021-02-17T11:41:00Z,00000200,01000000,0000.09,0000.10,-000.01,0000.04,0000.04,0000.12,0000.40,0000.37,0000.16,16.6,22.8,,00.0,0637.4,31.0
2021-02-17T11:42:00Z,00000200,01000000,0000.05,-000.08,-000.30,-000.09,0000.17,-000.23,0000.05,0000.03,-000.11,16.5,22.8,,00.0,0637.4,31.0
2021-02-17T11:43:00Z,00000200,01000000,-000.36,-000.06,-000.35,0000.06,-000.09,-000.15,-000.25,0000.03,0000.01,16.5,22.8,,00.0,0637.4,31.0
2021-02-17T11:44:00Z,00000200,01000000,-000.70,0000.15,-000.16,0000.11,0000.06,-000.33,-000.02,-000.55,0000.00,16.5,22.8,,00.0,0637.3,31.0
2021-02-17T11:45:00Z,00000200,01000000,0000.20,0000.05,-000.37,-000.39,-000.01,-000.12,0000.23,0000.53,0000.16,16.4,22.7,,00.0,0637.3,31.0
2021-02-17T11:46:00Z,00000200,01000000,0000.01,0000.13,-000.05,0000.09,0000.03,-000.06,-000.03,-000.20,0000.17,16.4,22.7,,00.0,0637.3,31.0
2021-02-17T11:47:00Z,00000200,01000000,0000.14,0000.10,-000.05,0000.12,0000.12,-000.24,0000.21,0000.22,-000.15,16.4,22.7,,00.0,0637.3,31.0
2021-02-17T11:48:00Z,00000200,01000000,-000.56,-000.01,-000.05,-000.16,-000.09,-000.09,0000.00,0000.23,-000.03,16.3,22.7,,00.0,0637.3,30.9
2021-02-17T11:49:00Z,00000200,01000000,0000.40,0000.14,0000.08,-000.32,-000.03,-000.07,0000.33,-000.07,0000.19,16.3,22.7,,00.0,0637.3,30.9
2021-02-17T11:50:00Z,00000200,01000000,-000.45,-000.13,-000.02,-000.27,0000.12,-000.19,0000.07,0000.26,0000.40,16.3,22.6,,00.0,0637.3,30.9
2021-02-17T11:51:00Z,00000200,01000000,-000.35,-000.11,-000.13,0000.05,0000.38,-000.19,0000.26,-000.15,-000.06,16.4,22.7,,00.0,0637.3,30.9
2021-02-17T11:52:00Z,00000200,01000000,-000.12,0000.20,-000.21,-000.17,0000.00,-000.27,-000.25,0000.43,0000.03,16.5,22.7,,00.0,0637.3,31.0
2021-02-17T11:53:00Z,00000200,01000000,-000.30,-000.02,-000.12,-000.01,0000.02,-000.03,0000.36,-000.26,0000.08,16.5,22.7,,00.0,0637.2,31.0
2021-02-17T11:54:00Z,00000200,01000000,0000.10,-000.19,0000.09,-000.81,-000.04,-000.29,-000.16,0000.42,-000.32,16.6,22.8,,00.0,0637.2,31.0
2021-02-17T11:55:00Z,00000200,01000000,-000.40,-000.32,-000.17,-000.24,0000.14,-000.39,0000.19,0000.00,0000.37,16.6,22.8,,00.0,0637.2,31.0
2021-02-17T11:56:00Z,00000200,01000000,-000.25,-000.24,-000.18,-000.07,0000.10,-000.21,0000.22,0000.00,0000.11,16.5,22.8,,00.0,0637.2,31.0
2021-02-17T11:57:00Z,00000200,41000000,,,,,,,-000.22,-000.28,-000.31,16.5,22.8,,00.0,0637.2,31.0
2021-02-17T11:58:00Z,00000200,61000000,,,,,,,-000.20,-000.15,0000.02,16.2,22.9,,00.0,0636.2,31.0
2021-02-17T11:59:00Z,00000200,21000000,,,,,,,0000.06,0000.15,-000.27,16.1,23.0,,00.0,0636.2,31.0
